Wetbulb
57.17 53.43 52.72 54.38 54.68 54.04 52.79 51.40 51.12 53.30 54.87 53.06 53.27 54.21 55.33 57.24 58.17 59.18 60.67 63.57 65.25 66.22 67.93 67.15 64.91 66.45 66.80 66.88 66.36 67.27 67.86 69.01 68.51 67.09 66.02 65.18 63.98 64.71 64.05 64.55 65.93 65.89 65.33 65.43
54.00 52.03 55.49 54.96 54.55 53.46 53.19 52.01 52.22 53.55 54.54 54.45 53.93 53.57 55.77 56.68 57.53 58.86 60.64 63.00 64.90 65.66 66.47 65.01 64.19 65.81 66.42 66.20 67.63 68.30 68.24 69.24 69.08 68.14 67.81 67.18 66.23 65.38 65.33 65.33 67.83 65.71 62.64 64.14
53.40 54.62 55.09 53.77 53.56 52.73 53.39 51.41 51.48 51.10 53.48 54.48 53.56 51.96 53.64 57.43 58.45 59.65 62.29 63.92 65.21 65.09 64.89 63.25 63.73 64.77 66.11 66.58 67.58 67.99 68.71 69.59 69.34 68.71 66.72 65.75 65.77 64.21 61.17 61.95 62.22 63.46 62.75 62.40
53.83 55.62 53.60 53.36 52.37 53.30 51.27 53.98 52.13 51.28 50.51 47.28 52.34 45.02 52.40 54.28 55.26 58.27 60.21 62.72 63.98 64.70 64.73 63.91 64.35 65.18 66.11 66.72 67.61 67.52 66.89 66.29 65.70 65.68 64.17 63.62 60.59 59.13 59.89 59.81 60.19 61.30 61.71 61.42
53.42 53.32 53.02 52.25 53.20 54.13 52.22 53.87 52.31 51.63 50.24 50.28 49.91 47.16 51.35 54.18 53.22 55.56 58.75 60.82 63.02 64.31 64.68 64.44 64.28 64.76 65.35 64.25 63.49 63.15 62.58 64.12 64.45 63.73 63.07 61.04 61.58 59.64 59.27 58.88 60.81 62.29 61.38 62.31
55.05 56.29 54.52 54.93 54.86 54.99 55.79 53.89 53.30 53.40 50.87 46.03 49.61 46.91 49.19 51.86 52.73 54.49 57.43 59.16 61.42 63.03 64.00 64.48 65.35 64.25 62.91 62.39 61.87 62.39 62.20 62.21 63.15 62.63 61.89 61.95 60.22 59.45 57.57 57.89 56.77 57.04 57.50 58.08
53.13 53.64 55.78 55.92 54.20 56.75 55.06 51.42 46.49 46.22 45.69 44.83 50.15 47.24 50.49 53.61 54.36 54.97 56.24 57.59 59.47 61.04 61.70 62.54 63.08 61.40 61.49 60.69 60.55 60.83 61.15 61.08 61.53 60.95 60.44 60.15 60.61 59.87 57.97 57.34 55.81 56.64 55.69 56.35
50.56 48.06 53.93 56.03 54.25 52.27 52.86 51.82 46.87 40.14 42.26 44.84 49.82 46.44 50.02 54.48 55.53 55.92 56.82 57.84 59.32 60.45 60.36 60.33 60.21 59.94 59.98 60.21 60.36 60.25 60.16 59.87 60.17 59.69 59.12 60.08 59.63 56.47 55.75 55.82 55.34 54.65 55.20 55.43
51.51 50.12 55.30 55.05 55.48 54.64 52.35 50.22 53.03 47.47 49.45 46.09 49.45 49.95 53.89 54.61 54.61 55.02 55.84 57.18 57.89 59.31 59.45 59.43 59.56 59.02 59.62 59.72 59.70 59.73 59.40 59.08 58.87 58.58 59.89 59.99 58.23 57.29 56.03 55.06 54.03 54.33 56.42 56.76
54.78 49.86 54.64 54.62 55.34 55.19 53.47 53.71 47.77 50.22 42.40 40.87 46.11 47.13 48.67 51.63 52.94 54.63 55.34 56.31 57.82 58.58 58.72 58.60 58.48 59.49 59.50 59.45 59.55 59.54 58.89 57.52 57.96 58.52 58.33 57.32 56.63 56.27 56.18 55.63 53.94 54.31 54.56 56.38
56.39 54.11 52.45 55.26 53.76 52.15 52.27 50.94 51.49 50.49 48.71 43.41 41.92 46.32 53.52 53.34 54.21 54.45 55.38 55.91 57.31 57.61 57.79 57.86 58.04 58.57 58.65 58.73 58.40 58.26 57.28 57.21 57.75 58.01 57.67 56.65 55.45 55.72 55.43 54.55 53.94 54.29 54.22 54.50
58.03 56.20 51.01 52.01 55.01 54.81 52.60 51.05 51.37 46.63 45.73 49.13 47.13 46.88 55.80 54.97 55.30 55.92 55.64 56.47 57.05 57.14 57.55 57.57 57.92 57.50 57.84 57.81 57.66 56.66 56.99 56.87 57.68 57.50 56.61 55.33 55.27 54.98 54.10 52.93 53.72 55.09 54.40 52.52
57.99 53.88 49.06 49.90 53.18 53.72 50.97 51.74 51.38 51.47 51.55 46.71 45.05 47.80 56.16 55.91 55.89 56.44 55.35 55.94 56.20 56.77 57.14 57.73 56.81 56.92 56.97 57.05 56.41 55.93 56.62 57.10 57.03 56.01 54.91 55.15 54.80 53.82 52.31 52.85 52.77 53.10 52.25 50.58
57.59 55.77 52.15 47.18 49.31 51.95 49.68 50.55 51.67 51.10 47.27 47.69 47.96 49.10 52.51 54.17 54.37 55.59 55.99 56.52 56.83 57.09 57.24 56.19 56.46 56.56 56.47 56.35 55.73 55.62 56.38 57.35 56.30 55.10 54.56 53.95 52.80 51.50 51.07 51.84 51.88 51.90 50.59 49.57
57.98 52.06 52.62 52.45 52.00 51.60 50.73 49.69 49.68 48.80 49.89 47.60 49.36 49.28 52.09 54.28 54.20 55.05 56.41 56.45 56.11 56.23 55.33 55.81 55.68 55.91 55.70 55.60 55.30 55.81 56.32 56.14 55.18 54.03 54.08 52.13 52.06 51.56 51.42 52.05 51.75 50.33 49.46 49.46
58.00 51.41 52.49 50.21 51.35 51.15 49.26 49.96 49.89 50.16 50.81 50.47 50.51 50.18 55.09 55.51 55.64 55.58 55.60 55.93 55.69 55.35 55.47 55.35 55.42 55.33 54.90 54.79 54.54 55.11 55.39 55.21 54.87 52.90 51.74 51.82 51.37 51.19 51.56 51.60 49.33 49.03 48.77 49.06
55.57 52.63 50.80 47.08 50.84 49.95 46.82 50.17 50.95 50.96 52.09 51.76 48.45 52.27 54.75 54.29 54.61 55.56 55.98 55.93 55.52 55.56 55.43 55.11 55.09 55.00 55.06 54.78 54.85 54.82 54.63 54.93 53.84 51.92 50.79 50.37 50.38 49.84 51.60 50.36 48.84 48.35 48.19 48.80
54.96 53.88 52.36 47.79 49.17 41.05 50.37 54.24 52.85 51.35 52.49 53.87 53.76 54.27 54.82 54.86 55.88 56.04 57.11 56.43 56.15 56.21 55.43 55.39 55.15 55.17 55.36 55.38 55.08 55.58 54.17 53.11 52.69 50.41 49.66 49.86 50.16 49.96 50.59 49.41 48.77 48.57 48.84 48.70
57.96 55.33 50.22 46.48 46.16 48.76 49.53 52.65 51.81 51.03 51.57 55.33 54.56 54.49 55.30 55.82 56.41 56.92 58.32 57.44 57.06 56.98 56.57 55.97 56.03 55.39 55.48 55.13 55.01 54.77 52.48 52.19 50.58 49.99 49.91 50.00 50.50 49.81 48.47 48.16 48.33 48.89 48.63 48.81
56.90 57.18 51.97 49.22 43.90 41.70 50.58 54.31 56.35 55.45 47.99 56.35 55.52 55.25 55.28 55.87 51.11 54.39 58.36 57.75 57.53 57.79 57.23 56.24 55.96 55.40 55.22 55.08 55.08 53.96 51.00 49.45 49.23 49.85 50.06 50.80 50.87 49.21 48.16 48.46 48.44 48.81 49.35 49.71
49.67 51.78 48.65 47.17 45.78 48.54 53.38 54.29 56.70 46.17 49.47 57.83 56.92 56.88 56.83 55.01 56.46 58.65 59.54 58.36 58.48 57.80 56.75 56.54 56.06 54.54 55.07 54.88 54.94 51.60 49.80 49.20 49.59 50.28 51.11 51.14 50.57 49.34 49.04 48.96 49.04 49.01 49.37 49.55
50.54 47.25 45.79 48.82 46.41 43.35 56.18 55.21 50.31 54.96 59.46 59.43 58.55 58.40 57.86 58.32 58.47 58.57 59.19 58.99 58.33 57.54 56.38 56.08 55.16 54.52 55.13 54.63 53.80 51.00 48.39 49.51 49.44 50.34 50.57 51.17 50.19 49.41 48.99 48.46 49.16 49.65 49.78 47.80
48.69 52.90 50.63 50.89 48.88 58.16 58.08 57.56 58.86 60.17 59.15 58.99 59.12 59.55 58.89 58.17 57.74 58.08 58.60 59.26 58.73 57.52 56.52 56.48 55.04 54.14 54.54 54.26 52.40 49.06 48.72 48.72 49.20 49.74 50.50 50.81 49.65 48.61 48.56 48.46 48.76 49.33 48.28 45.99
53.77 55.66 52.45 52.88 54.61 55.21 57.03 58.28 59.67 59.42 59.07 60.60 60.01 59.66 59.55 58.40 58.17 57.77 58.98 59.05 58.41 57.34 55.84 55.99 54.81 53.61 53.02 53.28 50.85 49.55 48.73 48.83 49.01 49.48 49.99 50.36 47.82 47.24 48.35 48.86 48.57 46.03 44.50 45.65
53.26 54.99 52.68 53.19 55.49 55.98 56.77 58.54 58.92 59.16 59.75 60.04 60.54 60.19 60.00 59.60 58.68 58.25 58.92 58.93 58.36 57.09 56.30 55.57 54.38 53.45 52.60 51.41 49.77 49.79 48.75 49.11 49.05 49.16 49.84 50.14 47.39 47.60 47.26 47.42 42.99 44.25 43.26 41.08
54.90 53.56 51.18 50.28 56.27 57.30 57.42 60.18 59.74 58.97 58.88 59.71 59.19 59.01 59.91 59.14 58.26 59.10 59.42 59.35 58.14 56.67 56.64 54.75 54.31 53.18 52.25 50.81 49.49 49.13 49.01 49.07 48.81 48.47 49.57 48.66 46.92 47.06 47.31 47.87 47.19 40.96 39.62 39.44
MSLP
1005.93 1005.18 1004.35 1004.68 1005.42 1005.63 1005.51 1005.61 1005.54 1005.54 1006.15 1007.00 1006.46 1005.78 1006.04 1006.32 1006.79 1007.63 1007.96 1008.44 1009.34 1010.10 1010.94 1012.67 1013.75 1014.39 1015.11 1015.68 1016.26 1016.70 1016.97 1017.37 1017.46 1017.32 1016.84 1016.54 1016.26 1016.38 1016.26 1016.10 1015.91 1015.92 1016.01 1016.26
1005.81 1005.02 1005.74 1006.43 1006.75 1006.65 1006.41 1006.11 1005.67 1006.04 1006.44 1007.12 1006.62 1006.03 1005.86 1006.58 1007.32 1007.51 1007.86 1008.39 1009.25 1010.34 1011.16 1012.34 1013.62 1014.26 1014.83 1015.41 1016.02 1016.53 1016.82 1017.04 1017.24 1017.13 1016.93 1017.14 1017.02 1016.61 1016.18 1016.03 1015.74 1016.00 1016.82 1016.98
1005.23 1005.62 1007.09 1007.27 1006.97 1007.04 1006.22 1006.87 1007.00 1007.06 1006.94 1006.73 1006.08 1005.70 1005.47 1007.31 1008.09 1008.38 1008.50 1008.87 1009.28 1010.25 1010.97 1012.29 1013.44 1013.87 1014.37 1014.90 1015.50 1015.88 1016.29 1016.87 1017.33 1017.41 1017.17 1017.00 1016.84 1016.52 1015.98 1015.81 1016.07 1015.90 1016.37 1016.76
1005.67 1006.99 1007.32 1007.27 1007.08 1007.87 1006.93 1007.78 1007.92 1007.53 1007.18 1006.19 1006.34 1005.43 1006.00 1007.43 1008.08 1008.75 1009.37 1009.70 1009.80 1010.08 1010.88 1011.81 1012.70 1013.21 1013.88 1014.56 1014.90 1015.62 1016.62 1017.27 1017.27 1017.79 1017.72 1017.78 1017.62 1016.81 1016.72 1016.74 1016.33 1016.40 1016.56 1016.55
1006.13 1007.07 1007.30 1007.22 1007.65 1008.51 1008.06 1008.45 1008.16 1007.90 1007.39 1006.84 1005.97 1006.17 1006.62 1007.35 1007.60 1008.24 1008.84 1009.54 1010.02 1010.21 1010.47 1011.34 1012.36 1013.01 1014.19 1014.90 1015.34 1016.05 1016.76 1017.33 1017.65 1017.99 1018.21 1018.05 1017.71 1017.59 1017.30 1017.05 1016.97 1016.76 1016.60 1016.03
1006.86 1007.69 1007.89 1007.81 1008.55 1008.82 1008.69 1007.80 1007.22 1006.99 1006.78 1005.84 1006.30 1007.04 1005.99 1007.24 1008.47 1008.70 1009.26 1009.60 1009.94 1010.34 1010.64 1011.25 1012.13 1013.48 1014.28 1014.71 1015.43 1015.99 1016.48 1016.96 1017.49 1017.74 1017.91 1017.97 1017.88 1017.85 1017.70 1017.52 1017.34 1016.46 1015.84 1015.55
1007.38 1007.60 1008.13 1008.81 1008.16 1008.11 1008.31 1008.31 1006.59 1006.16 1005.62 1005.49 1006.73 1006.94 1007.20 1008.39 1009.07 1009.48 1009.63 1009.90 1010.26 1010.54 1010.73 1011.19 1012.37 1013.31 1013.84 1014.74 1015.41 1016.06 1016.35 1016.87 1017.21 1017.45 1017.62 1017.69 1017.82 1017.85 1017.78 1017.45 1017.13 1016.70 1016.22 1015.90
1006.56 1007.47 1008.18 1008.82 1008.86 1009.12 1008.79 1009.21 1008.39 1008.09 1006.98 1006.38 1006.39 1006.50 1007.78 1008.81 1009.62 1010.11 1010.36 1010.45 1010.44 1010.59 1011.23 1011.90 1012.83 1013.74 1014.38 1014.88 1015.64 1016.14 1016.52 1016.80 1017.09 1017.22 1017.32 1017.51 1017.53 1017.78 1017.83 1017.69 1017.53 1017.18 1016.69 1016.25
1007.33 1007.54 1008.71 1009.07 1009.53 1009.86 1009.28 1009.09 1010.00 1009.88 1008.74 1007.77 1006.08 1006.50 1007.58 1009.08 1009.46 1010.13 1010.40 1011.08 1011.11 1011.65 1012.24 1012.81 1013.27 1014.06 1014.79 1015.49 1015.81 1016.18 1016.35 1016.44 1016.60 1016.89 1017.06 1017.14 1017.48 1017.53 1017.55 1017.67 1017.49 1017.08 1016.51 1015.99
1008.80 1008.73 1008.49 1009.62 1009.82 1009.98 1010.07 1010.37 1010.06 1009.76 1009.13 1008.12 1006.62 1006.92 1007.26 1008.53 1009.21 1009.76 1010.18 1010.47 1011.09 1012.02 1012.56 1012.90 1013.51 1014.20 1014.86 1015.48 1015.75 1015.76 1016.10 1016.34 1016.62 1016.76 1016.74 1017.03 1017.32 1017.47 1017.36 1017.12 1017.08 1016.86 1016.54 1016.06
1009.77 1010.01 1009.18 1009.37 1009.11 1009.30 1009.76 1009.50 1010.09 1010.82 1010.49 1009.51 1008.46 1007.58 1008.87 1009.40 1010.09 1010.67 1011.02 1010.82 1010.95 1011.84 1012.36 1012.65 1013.18 1013.89 1014.64 1015.18 1015.38 1015.78 1016.19 1016.38 1016.54 1016.56 1016.80 1017.12 1017.14 1017.06 1016.95 1016.86 1016.76 1016.47 1016.22 1015.95
1010.68 1010.62 1009.88 1009.15 1009.56 1010.22 1010.42 1010.42 1010.69 1010.91 1010.71 1009.96 1009.66 1009.30 1009.61 1010.07 1010.44 1011.05 1011.38 1011.29 1011.63 1012.34 1012.67 1013.05 1013.35 1013.87 1014.50 1015.00 1015.45 1015.93 1016.27 1016.49 1016.41 1016.66 1016.81 1016.91 1016.90 1016.76 1016.77 1016.72 1016.53 1016.18 1015.77 1015.84
1011.50 1011.09 1010.65 1009.62 1009.93 1010.66 1010.38 1010.45 1011.20 1011.52 1011.86 1011.17 1010.39 1009.52 1009.49 1009.54 1010.09 1010.47 1011.49 1011.64 1012.05 1012.44 1012.81 1013.06 1013.49 1014.11 1014.60 1015.11 1015.73 1016.10 1016.41 1016.48 1016.61 1016.82 1016.69 1016.57 1016.49 1016.66 1016.68 1016.48 1016.30 1016.00 1015.74 1015.62
1012.71 1011.81 1011.35 1010.58 1010.04 1010.22 1010.46 1010.46 1010.59 1011.23 1011.42 1010.88 1010.05 1009.64 1009.54 1009.91 1010.54 1010.80 1011.26 1011.81 1012.01 1012.23 1012.66 1013.13 1013.81 1014.38 1014.84 1015.38 1015.89 1016.29 1016.51 1016.55 1016.70 1016.75 1016.57 1016.67 1016.80 1016.75 1016.63 1016.32 1015.90 1015.58 1015.45 1015.20
1012.84 1012.16 1011.52 1010.94 1010.77 1010.79 1010.65 1010.52 1010.45 1010.46 1010.77 1010.91 1010.54 1010.18 1010.16 1010.49 1011.14 1011.26 1011.68 1012.02 1012.25 1012.41 1012.78 1013.30 1014.02 1014.68 1015.16 1015.62 1016.12 1016.34 1016.56 1016.76 1016.97 1016.88 1016.62 1016.73 1016.57 1016.43 1016.13 1015.70 1015.48 1015.33 1015.02 1014.64
1012.77 1012.29 1011.90 1011.44 1010.96 1010.60 1010.63 1010.38 1010.30 1010.29 1010.53 1010.61 1010.60 1010.35 1010.45 1010.95 1011.29 1011.43 1011.71 1012.05 1012.33 1012.60 1013.00 1013.67 1014.32 1014.93 1015.45 1015.95 1016.30 1016.53 1016.60 1016.95 1017.02 1016.93 1016.81 1016.71 1016.42 1016.09 1015.61 1015.31 1015.26 1014.90 1014.43 1014.00
1012.45 1012.16 1012.10 1011.41 1010.88 1011.04 1010.44 1009.40 1009.09 1009.75 1010.26 1010.72 1010.61 1010.29 1010.78 1010.95 1011.19 1011.45 1011.74 1012.20 1012.58 1012.97 1013.49 1014.08 1014.68 1015.26 1015.85 1016.28 1016.53 1016.48 1016.68 1017.01 1016.99 1016.98 1016.93 1016.63 1016.24 1015.77 1015.23 1015.13 1014.89 1014.45 1013.90 1013.42
1012.24 1012.36 1012.22 1011.62 1011.35 1010.62 1009.72 1010.23 1010.20 1010.34 1010.61 1010.76 1010.73 1010.88 1010.90 1011.12 1011.48 1011.57 1011.75 1012.35 1013.03 1013.50 1013.96 1014.49 1015.05 1015.62 1016.11 1016.55 1016.59 1016.70 1016.88 1017.11 1017.08 1017.18 1016.88 1016.36 1015.94 1015.57 1015.19 1014.85 1014.40 1013.95 1013.38 1012.80
1012.08 1012.26 1011.91 1011.74 1011.01 1010.25 1009.84 1009.27 1010.38 1010.37 1010.76 1010.83 1010.51 1010.74 1011.01 1011.23 1011.91 1011.19 1012.02 1013.02 1013.44 1014.08 1014.63 1015.00 1015.44 1015.95 1016.35 1016.57 1016.78 1016.80 1017.12 1017.28 1017.37 1016.93 1016.58 1016.09 1015.74 1015.50 1015.10 1014.62 1014.10 1013.50 1012.92 1012.36
1012.32 1012.49 1012.53 1011.84 1010.97 1010.12 1009.83 1010.23 1011.04 1011.30 1010.92 1010.24 1010.47 1011.20 1011.20 1011.50 1011.49 1011.41 1012.70 1013.12 1013.58 1014.26 1014.83 1015.25 1015.78 1016.08 1016.25 1016.70 1016.92 1016.95 1017.51 1017.59 1017.26 1016.97 1016.48 1015.95 1015.54 1015.42 1014.99 1014.47 1013.86 1013.25 1012.63 1012.03
1012.69 1012.20 1011.68 1011.17 1010.59 1009.87 1009.66 1010.07 1011.23 1011.59 1011.54 1010.76 1011.01 1011.41 1011.46 1011.61 1011.83 1012.23 1013.03 1013.31 1013.90 1014.54 1015.10 1015.52 1015.80 1015.97 1016.30 1016.75 1016.83 1017.37 1017.79 1017.59 1017.53 1017.03 1016.27 1015.65 1015.46 1015.31 1014.85 1014.27 1013.66 1012.93 1012.32 1011.93
1010.56 1011.72 1012.65 1011.08 1010.62 1009.66 1009.58 1010.67 1011.25 1011.57 1011.48 1011.49 1011.59 1011.63 1011.75 1011.82 1011.95 1012.08 1012.73 1013.20 1013.74 1014.29 1014.79 1015.27 1015.62 1015.92 1016.31 1016.69 1016.99 1017.56 1017.86 1017.87 1017.60 1016.84 1016.00 1015.48 1015.37 1015.20 1014.69 1014.05 1013.33 1012.72 1012.22 1012.03
1009.82 1010.87 1010.61 1010.74 1011.02 1010.18 1010.35 1010.87 1011.06 1011.46 1011.76 1011.70 1011.59 1011.83 1011.90 1011.83 1011.89 1011.88 1012.10 1012.84 1013.60 1014.22 1014.83 1015.33 1015.65 1015.96 1016.30 1016.74 1017.49 1017.96 1018.01 1017.88 1017.37 1016.68 1015.88 1015.55 1015.42 1015.20 1014.65 1013.98 1013.23 1012.65 1012.38 1012.25
1009.61 1009.97 1010.17 1010.61 1010.31 1010.35 1010.43 1010.63 1010.73 1011.10 1011.34 1011.66 1011.80 1012.11 1011.89 1011.78 1011.83 1011.85 1012.01 1012.80 1013.60 1014.11 1014.71 1015.29 1015.73 1016.01 1016.43 1016.99 1017.81 1018.09 1018.07 1017.81 1017.18 1016.44 1015.95 1015.62 1015.50 1015.23 1014.57 1014.05 1013.63 1013.28 1013.09 1012.77
1010.05 1010.43 1010.75 1011.12 1010.48 1010.22 1010.36 1010.78 1010.83 1010.19 1010.89 1011.50 1011.75 1011.90 1011.57 1011.64 1011.86 1011.66 1011.88 1012.79 1013.70 1014.21 1014.80 1015.41 1015.78 1016.19 1016.60 1017.38 1017.87 1018.01 1017.98 1017.73 1017.03 1016.50 1015.92 1015.61 1015.60 1015.35 1014.77 1014.49 1014.58 1014.13 1013.87 1013.77
1010.53 1010.39 1010.50 1010.29 1010.65 1011.23 1011.42 1011.45 1011.80 1011.80 1011.56 1011.74 1011.81 1011.59 1011.27 1011.27 1011.18 1011.50 1011.69 1012.56 1013.59 1014.23 1014.82 1015.35 1015.77 1016.33 1016.84 1017.45 1017.85 1018.00 1017.94 1017.65 1017.02 1016.49 1015.88 1015.77 1015.82 1015.54 1015.00 1014.63 1014.68 1014.70 1014.28 1013.92
Wind_Speed
10 14 2 16 11 12 9 6 8 7 2 6 14 13 11 11 5 10 13 10 12 12 14 15 12 9 5 4 2 3 5 6 6 8 9 9 9 11 11 11 13 12 10 11
8 6 11 6 7 8 8 10 10 4 4 9 15 17 14 2 12 7 12 11 11 11 12 13 13 9 6 4 4 5 7 7 7 8 8 9 9 11 10 12 11 7 7 6
7 16 5 5 5 7 10 4 12 13 14 16 18 17 11 6 5 4 7 6 8 11 12 12 11 10 6 5 6 8 6 7 8 10 9 8 9 10 11 11 11 11 11 11
2 8 3 7 3 7 13 10 11 12 13 12 3 11 10 6 2 3 4 9 10 11 10 12 14 10 6 7 8 6 7 6 6 6 8 8 9 10 10 11 11 11 14 14
8 9 7 9 12 6 11 10 11 11 11 13 9 9 12 6 3 4 7 8 10 11 10 11 12 2 8 6 6 3 3 6 5 7 8 9 11 11 12 12 15 14 14 16
7 5 2 9 1 3 9 14 15 13 10 12 10 5 6 10 8 6 5 3 4 8 10 8 4 5 6 4 6 6 7 6 8 9 10 12 13 13 13 13 14 13 11 11
6 10 8 4 11 10 10 13 9 4 8 5 6 8 12 8 7 6 6 2 2 4 8 3 1 7 5 6 6 8 10 11 11 12 14 14 14 14 13 12 11 11 11 10
7 8 8 5 5 9 8 9 7 9 9 13 5 3 9 8 5 2 4 6 4 1 8 4 4 6 9 9 9 11 12 12 13 14 15 13 12 7 8 10 11 11 12 11
3 4 8 3 3 4 11 8 9 9 15 10 2 4 14 6 2 3 4 6 7 3 5 5 5 4 7 9 10 10 12 12 14 15 13 10 9 13 14 12 9 10 12 10
6 9 4 9 4 7 6 7 6 8 5 8 10 12 12 4 7 6 9 6 5 3 6 6 6 6 6 9 10 11 13 15 15 16 14 11 12 12 12 13 10 10 11 13
8 4 4 8 8 8 6 7 5 3 8 8 9 6 6 8 8 9 13 13 3 3 7 6 6 8 7 10 12 12 13 15 15 14 14 12 12 12 11 12 11 10 10 12
5 5 9 15 5 5 7 8 7 6 8 7 7 9 8 3 7 8 10 5 4 5 7 8 9 9 8 11 12 13 13 14 14 14 14 13 10 9 9 12 14 15 13 5
4 5 7 9 9 4 5 1 4 6 6 11 9 8 6 10 10 1 4 3 5 4 7 9 9 10 10 11 12 13 13 14 13 13 13 13 14 14 14 12 11 12 10 9
1 7 9 11 15 9 10 11 9 7 7 11 11 14 13 12 11 10 1 5 7 8 9 9 9 10 11 11 13 13 13 13 13 13 14 14 14 13 11 12 13 8 8 11
4 9 12 9 11 10 13 14 14 13 12 13 14 14 14 9 10 8 8 8 9 10 10 9 9 10 12 12 13 13 13 13 12 14 15 15 12 10 11 13 9 10 11 10
5 8 8 11 15 10 14 14 14 13 12 13 11 14 5 6 5 8 7 8 10 11 11 10 10 11 12 13 13 13 12 11 12 11 13 15 13 12 12 9 10 12 12 11
7 8 6 11 10 9 14 12 12 12 5 8 10 10 10 8 9 9 8 8 9 11 10 9 10 10 11 12 13 13 11 10 11 11 14 13 13 14 12 11 11 12 12 11
8 8 8 9 9 13 3 3 5 5 6 8 9 9 7 7 7 11 8 6 9 11 10 9 9 10 11 11 12 13 12 12 10 12 12 12 13 14 13 12 12 11 11 11
9 9 9 6 11 13 12 4 6 7 9 10 12 5 8 6 8 8 6 3 6 7 7 7 8 10 10 11 12 12 10 12 12 12 12 15 14 13 13 13 13 12 10 9
8 9 9 12 14 14 8 5 5 4 11 12 3 5 7 7 8 6 1 3 5 4 5 7 8 9 10 11 12 12 11 12 12 14 14 14 13 11 12 12 12 10 10 8
7 14 14 14 14 13 3 1 5 9 9 9 2 7 7 8 8 7 5 5 3 4 5 6 8 9 9 10 11 10 11 12 12 14 13 13 10 11 12 11 10 9 9 8
13 2 5 15 13 13 10 7 3 10 10 7 8 8 8 9 10 9 6 8 6 6 6 6 8 8 9 10 10 11 12 12 12 13 12 13 11 9 10 11 11 10 6 6
11 10 9 11 8 1 3 7 9 6 11 12 9 7 10 10 12 13 8 6 6 5 5 6 7 9 9 9 10 11 12 12 13 13 12 12 11 11 11 10 11 8 6 5
14 11 13 12 13 15 12 15 8 11 10 10 6 11 11 12 14 14 9 6 6 5 5 6 7 9 10 10 10 10 11 11 12 11 12 9 9 11 10 8 7 7 6 4
13 4 5 17 14 16 13 12 18 11 4 9 7 11 12 11 14 13 7 6 6 4 4 5 6 8 9 9 9 10 10 10 11 10 10 8 8 9 9 5 7 6 5 3
12 12 10 12 11 8 11 10 10 12 10 11 15 16 14 11 12 12 7 5 5 5 2 4 6 7 8 8 9 9 9 10 11 10 9 7 7 7 7 7 3 12 11 12
Wind_Direction
202 249 248 40 8 351 345 313 273 282 18 284 283 290 310 295 247 255 250 219 220 214 186 162 188 166 180 189 240 296 321 305 307 297 314 296 314 318 308 305 301 302 274 274
220 220 58 31 347 308 293 288 286 331 204 260 278 288 281 290 291 289 263 215 213 204 199 172 197 203 212 240 279 285 282 291 306 304 322 314 299 288 294 287 281 321 63 299
315 91 98 278 228 321 281 309 342 321 316 281 264 262 218 142 302 278 272 269 212 215 199 183 213 228 249 276 288 273 291 337 320 321 302 302 313 303 304 326 327 319 338 320
105 102 247 252 244 331 312 14 310 296 295 294 30 296 129 98 170 186 249 250 249 222 197 207 211 226 241 268 290 346 358 330 324 353 332 347 298 307 334 300 309 326 312 307
114 177 213 257 45 342 0 321 293 293 284 281 207 276 114 163 103 75 205 222 225 253 218 212 230 49 7 338 322 319 327 321 337 336 333 321 324 325 315 314 314 311 294 276
80 29 295 19 82 280 299 295 285 249 243 232 88 351 76 42 22 10 55 6 240 234 241 220 86 14 279 319 336 325 325 306 316 318 318 317 311 316 309 309 298 289 302 306
170 176 116 271 283 186 334 347 312 258 214 339 86 299 60 72 44 20 18 49 190 227 249 196 325 267 331 301 319 316 324 320 320 313 314 316 316 308 302 307 311 309 309 315
235 150 181 107 352 339 309 329 323 324 323 331 199 307 83 80 62 50 1 339 314 244 346 336 307 341 312 336 327 325 322 315 319 310 316 315 317 326 318 317 319 313 305 297
280 118 95 80 294 308 355 323 4 289 264 257 314 104 131 140 173 193 322 352 319 293 304 274 277 287 329 322 318 320 305 304 319 320 315 317 322 317 310 309 303 292 293 299
355 300 130 115 248 189 282 353 254 208 288 313 344 308 78 58 24 24 346 302 223 243 278 273 305 291 313 318 303 314 329 324 322 320 318 335 324 313 311 309 299 299 293 293
288 249 266 230 222 359 303 250 203 312 295 316 300 34 37 31 16 338 319 314 1 249 268 287 317 319 329 309 318 330 328 326 322 326 334 320 314 305 315 312 302 298 304 296
69 307 294 306 82 320 293 304 331 298 290 268 309 296 58 10 334 349 319 346 11 341 325 316 312 328 322 326 333 331 330 323 326 334 327 322 310 314 312 301 300 300 290 337
169 227 280 290 157 183 245 333 275 291 289 273 291 283 191 360 340 10 314 283 240 248 286 312 323 335 327 337 335 331 330 323 332 329 322 321 321 327 312 306 302 298 309 301
2 270 271 285 315 331 297 290 267 250 275 284 284 326 324 346 352 344 302 293 295 323 324 328 329 330 333 337 338 332 325 331 327 325 321 327 316 314 303 299 291 303 296 293
257 264 277 270 291 286 282 285 281 268 251 263 287 306 313 11 335 344 343 328 312 316 323 334 335 331 332 338 334 330 328 332 326 320 322 317 314 310 301 295 313 301 299 291
195 269 272 284 268 260 278 277 272 258 269 275 279 282 56 348 316 324 317 312 320 322 333 338 334 334 335 338 334 332 331 333 324 319 330 322 321 312 309 324 311 305 298 291
205 268 236 275 301 296 278 287 254 241 249 266 276 330 337 322 331 336 321 323 327 331 334 333 333 336 340 334 331 326 342 332 328 335 327 319 319 317 317 317 310 305 300 294
223 232 277 270 277 269 72 1 351 312 300 284 269 264 310 320 334 313 320 354 336 334 333 335 332 336 339 332 329 333 344 332 334 332 316 321 326 321 322 318 307 304 301 297
233 243 276 267 269 309 312 287 210 253 273 298 282 283 319 343 330 9 91 354 342 343 330 324 337 334 331 331 338 328 343 330 333 319 324 328 332 328 321 317 316 314 310 308
226 237 265 279 280 277 286 91 24 332 273 329 129 285 307 330 298 60 57 308 326 328 310 328 333 322 332 343 328 342 336 327 318 333 325 324 333 325 319 318 319 314 309 308
252 240 235 244 255 277 287 224 114 269 283 299 309 299 299 301 325 345 317 298 299 323 317 318 306 326 347 338 332 349 328 327 336 321 316 329 336 329 322 321 317 312 314 333
224 244 347 253 294 285 64 106 242 283 319 300 297 295 302 309 311 299 272 289 293 306 314 319 324 333 337 343 357 336 329 333 323 319 314 340 342 332 328 323 319 315 316 335
249 207 278 303 202 12 68 292 316 266 281 295 303 308 310 314 313 309 295 269 274 301 322 311 335 324 348 347 16 331 334 329 324 320 333 344 349 335 331 328 321 332 356 339
269 260 254 266 269 285 285 280 248 263 262 270 302 309 305 304 315 309 294 266 265 281 312 328 328 339 340 5 356 333 329 330 319 325 338 343 351 333 336 335 352 349 10 4
293 331 224 244 270 276 286 324 8 279 227 243 287 288 285 286 302 303 283 243 266 280 316 333 332 341 345 2 345 335 336 326 334 330 333 355 353 337 335 18 20 4 33 353
285 280 279 277 314 332 306 352 351 329 322 302 291 293 295 301 295 289 253 233 235 252 311 326 336 351 345 5 339 343 338 329 334 330 337 3 351 338 338 339 80 40 42 45